QPF
0.00 0.00 0.00 0.00 0.00 0.00 0.00 0.00 0.00 0.00 0.00 0.00 0.00 0.00 0.00 0.00 0.00 0.00 0.00 0.00 0.00 0.00 0.00 0.00 0.00 0.00 0.00 0.00 0.00 0.00 0.00 0.00 0.00 0.00 0.00 0.00 0.00 0.00 0.00 0.00 0.00 0.00 0.00 0.00 0.00 0.00 0.00 0.00 0.00 0.00 0.00 0.00 0.00 0.00 0.00 0.00 0.00 0.00 0.00 0.00 0.00 0.00 0.00 0.00 0.00 0.00 0.00 0.00 0.00
0.00 0.00 0.00 0.00 0.00 0.00 0.00 0.00 0.00 0.00 0.00 0.00 0.00 0.00 0.00 0.00 0.00 0.00 0.00 0.00 0.00 0.00 0.00 0.00 0.00 0.00 0.00 0.00 0.00 0.00 0.00 0.00 0.00 0.00 0.00 0.00 0.00 0.00 0.00 0.00 0.00 0.00 0.00 0.00 0.00 0.00 0.00 0.00 0.00 0.00 0.00 0.00 0.00 0.00 0.00 0.00 0.00 0.00 0.00 0.00 0.00 0.00 0.00 0.00 0.00 0.00 0.00 0.00 0.00
0.00 0.00 0.00 0.00 0.00 0.00 0.00 0.00 0.00 0.00 0.00 0.00 0.00 0.00 0.00 0.00 0.00 0.00 0.00 0.00 0.00 0.00 0.00 0.00 0.00 0.00 0.00 0.00 0.00 0.00 0.00 0.00 0.00 0.00 0.00 0.00 0.00 0.00 0.00 0.00 0.00 0.00 0.00 0.00 0.00 0.00 0.00 0.00 0.00 0.00 0.00 0.00 0.00 0.00 0.00 0.00 0.00 0.00 0.00 0.00 0.00 0.00 0.00 0.00 0.00 0.00 0.00 0.00 0.00
0.00 0.00 0.00 0.00 0.00 0.00 0.00 0.00 0.00 0.00 0.00 0.00 0.00 0.00 0.00 0.00 0.00 0.00 0.00 0.00 0.00 0.00 0.00 0.00 0.00 0.00 0.00 0.00 0.00 0.00 0.00 0.00 0.00 0.00 0.00 0.00 0.00 0.00 0.00 0.00 0.00 0.00 0.00 0.00 0.00 0.00 0.00 0.00 0.00 0.00 0.00 0.00 0.00 0.00 0.00 0.00 0.00 0.00 0.00 0.00 0.00 0.00 0.00 0.00 0.00 0.00 0.00 0.00 0.00
0.00 0.00 0.00 0.00 0.00 0.00 0.00 0.00 0.00 0.00 0.00 0.00 0.00 0.00 0.00 0.00 0.00 0.00 0.00 0.00 0.00 0.00 0.00 0.00 0.00 0.00 0.00 0.00 0.00 0.00 0.00 0.00 0.00 0.00 0.00 0.00 0.00 0.00 0.00 0.00 0.00 0.00 0.00 0.00 0.00 0.00 0.00 0.00 0.00 0.00 0.00 0.00 0.00 0.00 0.00 0.00 0.00 0.00 0.00 0.00 0.00 0.00 0.00 0.00 0.00 0.00 0.00 0.00 0.00
0.00 0.00 0.00 0.00 0.00 0.00 0.00 0.00 0.00 0.00 0.00 0.00 0.00 0.00 0.00 0.00 0.00 0.00 0.00 0.00 0.00 0.00 0.00 0.00 0.00 0.00 0.00 0.00 0.00 0.00 0.00 0.00 0.00 0.00 0.00 0.00 0.00 0.00 0.00 0.00 0.00 0.00 0.00 0.00 0.00 0.00 0.00 0.00 0.00 0.00 0.00 0.00 0.00 0.00 0.00 0.00 0.00 0.00 0.00 0.00 0.00 0.00 0.00 0.00 0.00 0.00 0.00 0.00 0.00
0.00 0.00 0.00 0.00 0.00 0.00 0.00 0.00 0.00 0.00 0.00 0.00 0.00 0.00 0.00 0.00 0.00 0.00 0.00 0.00 0.00 0.00 0.00 0.00 0.00 0.00 0.00 0.00 0.00 0.00 0.00 0.00 0.00 0.00 0.00 0.00 0.00 0.00 0.00 0.00 0.00 0.00 0.00 0.00 0.00 0.00 0.00 0.00 0.00 0.00 0.00 0.00 0.00 0.00 0.00 0.00 0.00 0.00 0.00 0.00 0.00 0.00 0.00 0.00 0.00 0.00 0.00 0.00 0.00
0.00 0.00 0.00 0.00 0.00 0.00 0.00 0.00 0.00 0.00 0.00 0.00 0.00 0.00 0.00 0.00 0.00 0.00 0.00 0.00 0.00 0.00 0.00 0.00 0.00 0.00 0.00 0.00 0.00 0.00 0.00 0.00 0.00 0.00 0.00 0.00 0.00 0.00 0.00 0.00 0.00 0.00 0.00 0.00 0.00 0.00 0.00 0.00 0.00 0.00 0.00 0.00 0.00 0.00 0.00 0.00 0.00 0.00 0.00 0.00 0.00 0.00 0.00 0.00 0.00 0.00 0.00 0.00 0.00
0.00 0.00 0.00 0.00 0.00 0.00 0.00 0.00 0.00 0.00 0.00 0.00 0.00 0.00 0.00 0.00 0.00 0.00 0.00 0.00 0.00 0.00 0.00 0.00 0.00 0.00 0.00 0.00 0.00 0.00 0.00 0.00 0.00 0.00 0.00 0.00 0.00 0.00 0.00 0.00 0.00 0.00 0.00 0.00 0.00 0.00 0.00 0.00 0.00 0.00 0.00 0.00 0.00 0.00 0.00 0.00 0.00 0.00 0.00 0.00 0.00 0.00 0.00 0.00 0.00 0.00 0.00 0.00 0.00
0.00 0.00 0.00 0.00 0.00 0.00 0.00 0.00 0.00 0.00 0.00 0.00 0.00 0.00 0.00 0.00 0.00 0.00 0.00 0.00 0.00 0.00 0.00 0.00 0.00 0.00 0.00 0.00 0.00 0.00 0.00 0.00 0.00 0.00 0.00 0.00 0.00 0.00 0.00 0.00 0.00 0.00 0.00 0.00 0.00 0.00 0.00 0.00 0.00 0.00 0.00 0.00 0.00 0.00 0.00 0.00 0.00 0.00 0.00 0.00 0.00 0.00 0.00 0.00 0.00 0.00 0.00 0.00 0.00
0.00 0.00 0.00 0.00 0.00 0.00 0.00 0.00 0.00 0.00 0.00 0.00 0.00 0.00 0.00 0.00 0.00 0.00 0.00 0.00 0.00 0.00 0.00 0.00 0.00 0.00 0.00 0.00 0.00 0.00 0.00 0.00 0.00 0.00 0.00 0.00 0.00 0.00 0.00 0.00 0.00 0.00 0.00 0.00 0.00 0.00 0.00 0.00 0.00 0.00 0.00 0.00 0.00 0.00 0.00 0.00 0.00 0.00 0.00 0.00 0.00 0.00 0.00 0.00 0.00 0.00 0.00 0.00 0.00
0.00 0.00 0.00 0.00 0.00 0.00 0.00 0.00 0.00 0.00 0.00 0.00 0.00 0.00 0.00 0.00 0.00 0.00 0.00 0.00 0.00 0.00 0.00 0.00 0.00 0.00 0.00 0.00 0.00 0.00 0.00 0.00 0.00 0.00 0.00 0.00 0.00 0.00 0.00 0.00 0.00 0.00 0.00 0.00 0.00 0.00 0.00 0.00 0.00 0.00 0.00 0.00 0.00 0.00 0.00 0.00 0.00 0.00 0.00 0.00 0.00 0.00 0.00 0.00 0.00 0.00 0.00 0.00 0.00
0.00 0.00 0.00 0.00 0.00 0.00 0.00 0.00 0.00 0.00 0.00 0.00 0.00 0.00 0.00 0.00 0.00 0.00 0.00 0.00 0.00 0.00 0.00 0.00 0.00 0.00 0.00 0.00 0.00 0.00 0.00 0.00 0.00 0.00 0.00 0.00 0.00 0.00 0.00 0.00 0.00 0.00 0.00 0.00 0.00 0.00 0.00 0.00 0.00 0.00 0.00 0.00 0.00 0.00 0.00 0.00 0.00 0.00 0.00 0.00 0.00 0.00 0.00 0.00 0.00 0.00 0.00 0.00 0.00
0.00 0.00 0.00 0.00 0.00 0.00 0.00 0.00 0.00 0.00 0.00 0.00 0.00 0.00 0.00 0.00 0.00 0.00 0.00 0.00 0.00 0.00 0.00 0.00 0.00 0.00 0.00 0.00 0.00 0.00 0.00 0.00 0.00 0.00 0.00 0.00 0.00 0.00 0.00 0.00 0.00 0.00 0.00 0.00 0.00 0.00 0.00 0.00 0.00 0.00 0.00 0.00 0.00 0.00 0.00 0.00 0.00 0.00 0.00 0.00 0.00 0.00 0.00 0.00 0.00 0.00 0.00 0.00 0.00
0.00 0.00 0.00 0.00 0.00 0.00 0.00 0.00 0.00 0.00 0.00 0.00 0.00 0.00 0.00 0.00 0.00 0.00 0.00 0.00 0.00 0.00 0.00 0.00 0.00 0.00 0.00 0.00 0.00 0.00 0.00 0.00 0.00 0.00 0.00 0.00 0.00 0.00 0.00 0.00 0.00 0.00 0.00 0.00 0.00 0.00 0.00 0.00 0.00 0.00 0.00 0.00 0.00 0.00 0.00 0.00 0.00 0.00 0.00 0.00 0.00 0.00 0.00 0.00 0.00 0.00 0.00 0.00 0.00
0.00 0.00 0.00 0.00 0.00 0.00 0.00 0.00 0.00 0.00 0.00 0.00 0.00 0.00 0.00 0.00 0.00 0.00 0.00 0.00 0.00 0.00 0.00 0.00 0.00 0.00 0.00 0.00 0.00 0.00 0.00 0.00 0.00 0.00 0.00 0.00 0.00 0.00 0.00 0.00 0.00 0.00 0.00 0.00 0.00 0.00 0.00 0.00 0.00 0.00 0.00 0.00 0.00 0.00 0.00 0.00 0.00 0.00 0.00 0.00 0.00 0.00 0.00 0.00 0.00 0.00 0.00 0.00 0.00
0.00 0.00 0.00 0.00 0.00 0.00 0.00 0.00 0.00 0.00 0.00 0.00 0.00 0.00 0.00 0.00 0.00 0.00 0.00 0.00 0.00 0.00 0.00 0.00 0.00 0.00 0.00 0.00 0.00 0.00 0.00 0.00 0.00 0.00 0.00 0.00 0.00 0.00 0.00 0.00 0.00 0.00 0.00 0.00 0.00 0.00 0.00 0.00 0.00 0.00 0.00 0.00 0.00 0.00 0.00 0.00 0.00 0.00 0.00 0.00 0.00 0.00 0.00 0.00 0.00 0.00 0.00 0.00 0.00
0.00 0.00 0.00 0.00 0.00 0.00 0.00 0.00 0.00 0.00 0.00 0.00 0.00 0.00 0.00 0.00 0.00 0.00 0.00 0.00 0.00 0.00 0.00 0.00 0.00 0.00 0.00 0.00 0.00 0.00 0.00 0.00 0.00 0.00 0.00 0.00 0.00 0.00 0.00 0.00 0.00 0.00 0.00 0.00 0.00 0.00 0.00 0.00 0.00 0.00 0.00 0.00 0.00 0.00 0.00 0.00 0.00 0.00 0.00 0.00 0.00 0.00 0.00 0.00 0.00 0.00 0.00 0.00 0.00
0.00 0.00 0.00 0.00 0.00 0.00 0.00 0.00 0.00 0.00 0.00 0.00 0.00 0.00 0.00 0.00 0.00 0.00 0.00 0.00 0.00 0.00 0.00 0.00 0.00 0.00 0.00 0.00 0.00 0.00 0.00 0.00 0.00 0.00 0.00 0.00 0.00 0.00 0.00 0.00 0.00 0.00 0.00 0.00 0.00 0.00 0.00 0.00 0.00 0.00 0.00 0.00 0.00 0.00 0.00 0.00 0.00 0.00 0.00 0.00 0.00 0.00 0.00 0.00 0.00 0.00 0.00 0.00 0.00
0.00 0.00 0.00 0.00 0.00 0.00 0.00 0.00 0.00 0.00 0.00 0.00 0.00 0.00 0.00 0.00 0.00 0.00 0.00 0.00 0.00 0.00 0.00 0.00 0.00 0.00 0.00 0.00 0.00 0.00 0.00 0.00 0.00 0.00 0.00 0.00 0.00 0.00 0.00 0.00 0.00 0.00 0.00 0.00 0.00 0.00 0.00 0.00 0.00 0.00 0.00 0.00 0.00 0.00 0.00 0.00 0.00 0.00 0.00 0.00 0.00 0.00 0.00 0.00 0.00 0.00 0.00 0.00 0.00
0.00 0.00 0.00 0.00 0.00 0.00 0.00 0.00 0.00 0.00 0.00 0.00 0.00 0.00 0.00 0.00 0.00 0.00 0.00 0.00 0.00 0.00 0.00 0.00 0.00 0.00 0.00 0.00 0.00 0.00 0.00 0.00 0.00 0.00 0.00 0.00 0.00 0.00 0.00 0.00 0.00 0.00 0.00 0.00 0.00 0.00 0.00 0.00 0.00 0.00 0.00 0.00 0.00 0.00 0.00 0.00 0.00 0.00 0.00 0.00 0.00 0.00 0.00 0.00 0.00 0.00 0.00 0.00 0.00
0.00 0.00 0.00 0.00 0.00 0.00 0.00 0.00 0.00 0.00 0.00 0.00 0.00 0.00 0.00 0.00 0.00 0.00 0.00 0.00 0.00 0.00 0.00 0.00 0.00 0.00 0.00 0.00 0.00 0.00 0.00 0.00 0.00 0.00 0.00 0.00 0.00 0.00 0.00 0.00 0.00 0.00 0.00 0.00 0.00 0.00 0.00 0.00 0.00 0.00 0.00 0.00 0.00 0.00 0.00 0.00 0.00 0.00 0.00 0.00 0.00 0.00 0.00 0.00 0.00 0.00 0.00 0.01 0.00
0.00 0.00 0.00 0.00 0.00 0.00 0.00 0.00 0.00 0.00 0.00 0.00 0.00 0.00 0.00 0.00 0.00 0.00 0.00 0.00 0.00 0.00 0.00 0.00 0.00 0.00 0.00 0.00 0.00 0.00 0.00 0.00 0.00 0.00 0.00 0.00 0.00 0.00 0.00 0.00 0.00 0.00 0.00 0.00 0.00 0.00 0.00 0.00 0.00 0.00 0.00 0.01 0.01 0.01 0.01 0.00 0.01 0.00 0.00 0.00 0.00 0.00 0.00 0.00 0.00 0.00 0.00 0.01 0.01
0.00 0.00 0.00 0.00 0.00 0.00 0.00 0.00 0.00 0.00 0.00 0.00 0.00 0.00 0.00 0.00 0.00 0.00 0.00 0.00 0.00 0.00 0.00 0.00 0.00 0.00 0.00 0.00 0.00 0.00 0.00 0.00 0.00 0.00 0.00 0.00 0.00 0.00 0.00 0.00 0.00 0.00 0.00 0.00 0.00 0.00 0.01 0.01 0.01 0.01 0.01 0.01 0.01 0.01 0.01 0.01 0.01 0.01 0.01 0.01 0.01 0.01 0.01 0.01 0.00 0.00 0.00 0.00 0.00
0.00 0.00 0.00 0.00 0.00 0.00 0.00 0.00 0.00 0.00 0.00 0.00 0.00 0.00 0.00 0.00 0.00 0.00 0.00 0.00 0.00 0.00 0.00 0.00 0.00 0.00 0.00 0.00 0.00 0.00 0.00 0.00 0.00 0.00 0.00 0.00 0.00 0.00 0.00 0.00 0.00 0.00 0.00 0.00 0.00 0.00 0.01 0.01 0.01 0.01 0.01 0.01 0.01 0.01 0.01 0.01 0.01 0.01 0.02 0.02 0.01 0.01 0.01 0.01 0.00 0.00 0.00 0.00 0.00
0.00 0.00 0.00 0.00 0.00 0.00 0.00 0.00 0.00 0.00 0.00 0.00 0.00 0.00 0.00 0.00 0.00 0.00 0.00 0.00 0.00 0.00 0.00 0.00 0.00 0.00 0.00 0.00 0.00 0.00 0.00 0.00 0.00 0.00 0.00 0.00 0.00 0.00 0.00 0.00 0.00 0.00 0.00 0.00 0.00 0.01 0.01 0.01 0.01 0.01 0.01 0.02 0.02 0.02 0.02 0.01 0.02 0.02 0.02 0.02 0.02 0.02 0.02 0.01 0.01 0.01 0.00 0.00 0.00
0.00 0.00 0.00 0.00 0.00 0.00 0.00 0.00 0.00 0.00 0.00 0.00 0.00 0.00 0.00 0.00 0.00 0.00 0.00 0.00 0.00 0.00 0.00 0.00 0.00 0.00 0.00 0.00 0.00 0.00 0.00 0.00 0.00 0.00 0.00 0.00 0.00 0.00 0.00 0.00 0.00 0.00 0.00 0.01 0.01 0.01 0.01 0.01 0.01 0.01 0.02 0.02 0.02 0.02 0.02 0.02 0.01 0.01 0.01 0.02 0.02 0.02 0.02 0.02 0.01 0.01 0.01 0.00 0.00
0.00 0.00 0.00 0.00 0.00 0.00 0.00 0.00 0.00 0.00 0.00 0.00 0.00 0.00 0.00 0.00 0.00 0.00 0.00 0.00 0.00 0.00 0.00 0.00 0.00 0.00 0.00 0.00 0.00 0.00 0.00 0.00 0.00 0.00 0.00 0.00 0.00 0.00 0.00 0.00 0.01 0.01 0.01 0.01 0.01 0.01 0.01 0.01 0.01 0.01 0.02 0.02 0.03 0.03 0.03 0.02 0.02 0.02 0.01 0.01 0.01 0.01 0.01 0.01 0.01 0.01 0.01 0.01 0.00
0.00 0.00 0.00 0.00 0.00 0.00 0.00 0.00 0.00 0.00 0.00 0.00 0.00 0.00 0.00 0.00 0.00 0.00 0.00 0.00 0.00 0.00 0.00 0.00 0.00 0.00 0.00 0.00 0.00 0.00 0.00 0.00 0.00 0.00 0.00 0.00 0.00 0.00 0.00 0.01 0.01 0.00 0.01 0.01 0.01 0.01 0.01 0.01 0.01 0.01 0.02 0.02 0.03 0.04 0.04 0.03 0.03 0.02 0.02 0.01 0.01 0.01 0.01 0.01 0.01 0.01 0.02 0.02 0.01
0.00 0.00 0.00 0.00 0.00 0.00 0.00 0.00 0.00 0.00 0.00 0.00 0.00 0.00 0.00 0.00 0.00 0.00 0.00 0.00 0.00 0.00 0.00 0.00 0.00 0.00 0.00 0.00 0.00 0.00 0.00 0.00 0.00 0.00 0.00 0.00 0.00 0.00 0.00 0.00 0.00 0.01 0.01 0.01 0.01 0.01 0.01 0.01 0.01 0.01 0.02 0.02 0.03 0.04 0.04 0.04 0.03 0.03 0.02 0.01 0.01 0.01 0.01 0.01 0.01 0.01 0.01 0.02 0.02
0.00 0.00 0.00 0.00 0.00 0.00 0.00 0.00 0.00 0.00 0.00 0.00 0.00 0.00 0.00 0.00 0.00 0.00 0.00 0.00 0.00 0.00 0.00 0.00 0.00 0.00 0.00 0.00 0.00 0.00 0.00 0.00 0.00 0.00 0.00 0.00 0.00 0.00 0.00 0.00 0.00 0.00 0.01 0.01 0.01 0.01 0.01 0.01 0.01 0.01 0.02 0.02 0.04 0.04 0.04 0.03 0.03 0.03 0.02 0.02 0.01 0.01 0.01 0.01 0.01 0.01 0.01 0.01 0.01
0.00 0.00 0.00 0.00 0.00 0.00 0.00 0.00 0.00 0.00 0.00 0.00 0.00 0.00 0.00 0.00 0.00 0.00 0.00 0.00 0.00 0.00 0.00 0.00 0.00 0.00 0.00 0.00 0.00 0.00 0.00 0.00 0.00 0.00 0.00 0.00 0.00 0.00 0.00 0.00 0.00 0.00 0.01 0.01 0.01 0.01 0.01 0.02 0.02 0.02 0.02 0.03 0.04 0.04 0.04 0.03 0.03 0.03 0.02 0.02 0.01 0.01 0.01 0.01 0.01 0.01 0.00 0.00 0.00
0.00 0.00 0.00 0.00 0.00 0.00 0.00 0.00 0.00 0.00 0.00 0.00 0.00 0.00 0.00 0.00 0.00 0.00 0.00 0.00 0.00 0.00 0.00 0.00 0.00 0.00 0.00 0.00 0.00 0.00 0.00 0.00 0.00 0.00 0.00 0.00 0.00 0.00 0.00 0.00 0.00 0.00 0.00 0.01 0.01 0.01 0.02 0.02 0.02 0.02 0.03 0.04 0.05 0.05 0.04 0.04 0.03 0.03 0.03 0.02 0.02 0.01 0.01 0.01 0.01 0.00 0.00 0.00 0.00
0.00 0.00 0.00 0.00 0.00 0.00 0.00 0.00 0.00 0.00 0.00 0.00 0.00 0.00 0.00 0.00 0.00 0.00 0.00 0.00 0.00 0.00 0.00 0.00 0.00 0.00 0.00 0.00 0.00 0.00 0.00 0.00 0.00 0.00 0.00 0.00 0.00 0.00 0.00 0.00 0.00 0.00 0.00 0.01 0.01 0.01 0.01 0.02 0.02 0.03 0.04 0.05 0.06 0.05 0.04 0.04 0.04 0.03 0.03 0.02 0.02 0.01 0.01 0.01 0.01 0.00 0.00 0.00 0.00
0.00 0.00 0.00 0.00 0.00 0.00 0.00 0.00 0.00 0.00 0.00 0.00 0.00 0.00 0.00 0.00 0.00 0.00 0.00 0.00 0.00 0.00 0.00 0.00 0.00 0.00 0.00 0.00 0.00 0.00 0.00 0.00 0.00 0.00 0.00 0.00 0.00 0.00 0.00 0.00 0.00 0.00 0.00 0.01 0.01 0.01 0.01 0.02 0.02 0.04 0.05 0.07 0.06 0.05 0.04 0.04 0.04 0.03 0.02 0.02 0.02 0.01 0.01 0.01 0.01 0.01 0.00 0.00 0.00
0.00 0.00 0.00 0.00 0.00 0.00 0.00 0.00 0.00 0.00 0.00 0.00 0.00 0.00 0.00 0.00 0.00 0.00 0.00 0.00 0.00 0.00 0.00 0.00 0.00 0.00 0.00 0.00 0.00 0.00 0.00 0.00 0.00 0.00 0.00 0.00 0.00 0.01 0.01 0.01 0.00 0.00 0.00 0.01 0.01 0.01 0.02 0.02 0.03 0.04 0.06 0.09 0.07 0.06 0.05 0.05 0.04 0.03 0.02 0.02 0.02 0.01 0.01 0.01 0.01 0.01 0.01 0.01 0.01
0.00 0.00 0.00 0.00 0.00 0.00 0.00 0.00 0.00 0.00 0.00 0.00 0.00 0.00 0.00 0.00 0.00 0.00 0.00 0.00 0.00 0.00 0.00 0.00 0.00 0.00 0.00 0.00 0.00 0.00 0.00 0.00 0.00 0.00 0.00 0.00 0.00 0.01 0.01 0.01 0.00 0.00 0.01 0.01 0.01 0.01 0.02 0.03 0.04 0.05 0.07 0.10 0.09 0.08 0.06 0.05 0.04 0.03 0.03 0.02 0.02 0.01 0.01 0.01 0.01 0.01 0.01 0.01 0.01
0.00 0.00 0.00 0.00 0.00 0.00 0.00 0.00 0.00 0.00 0.00 0.00 0.00 0.00 0.00 0.00 0.00 0.00 0.00 0.00 0.00 0.00 0.00 0.00 0.00 0.00 0.00 0.00 0.00 0.00 0.00 0.00 0.00 0.00 0.00 0.00 0.00 0.01 0.01 0.02 0.01 0.01 0.01 0.01 0.02 0.02 0.02 0.03 0.04 0.06 0.09 0.13 0.09 0.08 0.08 0.07 0.04 0.03 0.03 0.02 0.02 0.01 0.01 0.01 0.01 0.01 0.01 0.01 0.01
0.00 0.00 0.00 0.00 0.00 0.00 0.00 0.00 0.00 0.00 0.00 0.00 0.00 0.00 0.00 0.00 0.00 0.00 0.00 0.00 0.00 0.00 0.00 0.00 0.00 0.00 0.00 0.00 0.00 0.00 0.00 0.00 0.00 0.00 0.00 0.01 0.01 0.01 0.01 0.03 0.01 0.01 0.01 0.02 0.02 0.02 0.03 0.03 0.04 0.05 0.08 0.13 0.11 0.10 0.10 0.09 0.06 0.04 0.03 0.02 0.02 0.01 0.01 0.01 0.01 0.01 0.01 0.01 0.01
0.00 0.00 0.00 0.00 0.00 0.00 0.00 0.00 0.00 0.00 0.00 0.00 0.00 0.00 0.00 0.00 0.00 0.00 0.00 0.00 0.00 0.00 0.00 0.00 0.00 0.00 0.00 0.00 0.00 0.00 0.00 0.00 0.00 0.00 0.00 0.01 0.01 0.01 0.02 0.02 0.02 0.01 0.01 0.02 0.02 0.02 0.03 0.03 0.03 0.04 0.06 0.10 0.11 0.11 0.10 0.09 0.08 0.06 0.03 0.02 0.02 0.02 0.01 0.01 0.01 0.01 0.01 0.01 0.01
0.00 0.00 0.00 0.00 0.00 0.00 0.00 0.00 0.00 0.00 0.00 0.00 0.00 0.00 0.00 0.00 0.00 0.00 0.00 0.00 0.00 0.00 0.00 0.00 0.00 0.00 0.00 0.00 0.00 0.00 0.00 0.00 0.00 0.00 0.00 0.01 0.01 0.01 0.02 0.02 0.02 0.01 0.01 0.01 0.02 0.02 0.02 0.03 0.03 0.04 0.06 0.10 0.10 0.10 0.11 0.10 0.08 0.05 0.03 0.02 0.02 0.02 0.02 0.01 0.01 0.01 0.01 0.01 0.01
MSLP
1018.30 1018.34 1018.42 1018.50 1018.58 1018.62 1018.66 1018.74 1018.78 1018.82 1018.86 1018.86 1018.82 1018.82 1018.82 1018.82 1018.78 1018.74 1018.74 1018.74 1018.74 1018.70 1018.66 1018.62 1018.54 1018.50 1018.46 1018.42 1018.34 1018.30 1018.22 1018.14 1018.06 1018.02 1017.90 1017.82 1017.70 1017.58 1017.54 1017.46 1017.34 1017.26 1017.14 1017.02 1016.90 1016.78 1016.70 1016.58 1016.50 1016.34 1016.22 1016.10 1015.86 1015.70 1015.50 1015.38 1015.30 1015.18 1015.06 1014.98 1014.86 1014.74 1014.66 1014.58 1014.54 1014.46 1014.46 1014.46 1014.42
1018.22 1018.34 1018.50 1018.58 1018.62 1018.70 1018.74 1018.74 1018.78 1018.82 1018.86 1018.86 1018.82 1018.82 1018.78 1018.74 1018.74 1018.74 1018.70 1018.66 1018.66 1018.62 1018.58 1018.54 1018.46 1018.38 1018.30 1018.26 1018.22 1018.18 1018.10 1018.02 1017.90 1017.86 1017.74 1017.62 1017.58 1017.46 1017.42 1017.30 1017.18 1017.10 1017.02 1016.90 1016.74 1016.62 1016.50 1016.38 1016.30 1016.14 1015.98 1015.82 1015.66 1015.46 1015.30 1015.18 1015.18 1015.06 1014.90 1014.74 1014.66 1014.58 1014.46 1014.34 1014.30 1014.26 1014.26 1014.22 1014.22
1018.26 1018.42 1018.50 1018.58 1018.62 1018.66 1018.66 1018.66 1018.66 1018.70 1018.74 1018.78 1018.82 1018.82 1018.78 1018.74 1018.74 1018.70 1018.62 1018.58 1018.58 1018.54 1018.46 1018.42 1018.30 1018.26 1018.18 1018.14 1018.06 1018.02 1017.98 1017.86 1017.74 1017.66 1017.58 1017.46 1017.34 1017.26 1017.18 1017.10 1016.98 1016.90 1016.82 1016.74 1016.58 1016.46 1016.30 1016.18 1016.02 1015.90 1015.74 1015.58 1015.42 1015.22 1015.06 1014.90 1014.90 1014.82 1014.66 1014.54 1014.46 1014.38 1014.26 1014.14 1014.06 1014.06 1014.06 1014.02 1014.02
1018.30 1018.38 1018.46 1018.46 1018.54 1018.58 1018.58 1018.58 1018.62 1018.66 1018.66 1018.70 1018.74 1018.74 1018.74 1018.70 1018.70 1018.62 1018.58 1018.50 1018.46 1018.42 1018.34 1018.26 1018.18 1018.18 1018.10 1018.02 1017.90 1017.86 1017.78 1017.74 1017.62 1017.50 1017.38 1017.30 1017.18 1017.06 1016.98 1016.90 1016.78 1016.66 1016.58 1016.50 1016.38 1016.26 1016.18 1016.02 1015.86 1015.74 1015.50 1015.30 1015.14 1014.98 1014.82 1014.70 1014.58 1014.54 1014.42 1014.30 1014.22 1014.14 1014.02 1013.90 1013.86 1013.86 1013.82 1013.78 1013.74
1018.30 1018.38 1018.46 1018.46 1018.54 1018.58 1018.58 1018.62 1018.66 1018.66 1018.66 1018.66 1018.62 1018.62 1018.62 1018.58 1018.58 1018.54 1018.50 1018.42 1018.30 1018.22 1018.18 1018.14 1018.10 1018.02 1018.02 1017.90 1017.78 1017.66 1017.58 1017.50 1017.46 1017.38 1017.26 1017.06 1016.98 1016.90 1016.78 1016.70 1016.58 1016.46 1016.34 1016.26 1016.18 1016.06 1015.98 1015.86 1015.74 1015.54 1015.30 1015.10 1014.90 1014.74 1014.58 1014.42 1014.30 1014.22 1014.14 1014.02 1013.98 1013.86 1013.78 1013.70 1013.62 1013.58 1013.58 1013.46 1013.46
1018.22 1018.34 1018.46 1018.54 1018.58 1018.62 1018.62 1018.66 1018.66 1018.66 1018.62 1018.62 1018.58 1018.58 1018.54 1018.46 1018.46 1018.42 1018.30 1018.26 1018.18 1018.06 1018.02 1018.02 1018.02 1017.94 1017.86 1017.74 1017.62 1017.50 1017.42 1017.30 1017.30 1017.18 1017.06 1016.90 1016.78 1016.70 1016.58 1016.46 1016.34 1016.26 1016.18 1016.06 1015.98 1015.86 1015.78 1015.74 1015.58 1015.34 1015.14 1014.94 1014.74 1014.50 1014.34 1014.22 1014.06 1013.90 1013.82 1013.74 1013.62 1013.58 1013.50 1013.42 1013.34 1013.30 1013.26 1013.18 1013.18
1018.26 1018.34 1018.46 1018.50 1018.58 1018.58 1018.58 1018.62 1018.62 1018.62 1018.58 1018.58 1018.58 1018.50 1018.46 1018.42 1018.38 1018.30 1018.22 1018.18 1018.06 1018.02 1017.98 1017.94 1017.86 1017.74 1017.66 1017.58 1017.46 1017.34 1017.26 1017.18 1017.06 1016.94 1016.86 1016.74 1016.58 1016.46 1016.38 1016.26 1016.14 1016.02 1015.94 1015.82 1015.74 1015.62 1015.58 1015.54 1015.38 1015.18 1014.94 1014.74 1014.50 1014.30 1014.10 1014.02 1013.86 1013.66 1013.50 1013.38 1013.26 1013.22 1013.18 1013.06 1013.02 1013.02 1012.98 1012.90 1012.86
1018.38 1018.42 1018.46 1018.46 1018.54 1018.54 1018.54 1018.58 1018.54 1018.54 1018.54 1018.54 1018.46 1018.42 1018.34 1018.30 1018.26 1018.18 1018.10 1018.02 1017.98 1017.86 1017.82 1017.78 1017.70 1017.58 1017.50 1017.46 1017.30 1017.18 1017.10 1016.98 1016.86 1016.74 1016.62 1016.46 1016.30 1016.18 1016.06 1015.98 1015.86 1015.78 1015.66 1015.58 1015.50 1015.42 1015.30 1015.22 1015.10 1014.90 1014.74 1014.54 1014.30 1014.06 1013.86 1013.78 1013.58 1013.46 1013.30 1013.14 1012.98 1012.90 1012.82 1012.74 1012.74 1012.70 1012.62 1012.58 1012.54
1018.34 1018.42 1018.46 1018.46 1018.50 1018.50 1018.50 1018.46 1018.46 1018.46 1018.46 1018.42 1018.34 1018.30 1018.26 1018.22 1018.18 1018.10 1017.98 1017.90 1017.82 1017.78 1017.74 1017.62 1017.54 1017.46 1017.38 1017.26 1017.18 1017.02 1016.94 1016.86 1016.70 1016.54 1016.38 1016.22 1016.14 1015.98 1015.86 1015.74 1015.58 1015.46 1015.34 1015.30 1015.22 1015.14 1015.02 1014.94 1014.78 1014.58 1014.42 1014.26 1014.02 1013.82 1013.66 1013.58 1013.42 1013.26 1013.10 1012.90 1012.74 1012.58 1012.50 1012.42 1012.38 1012.34 1012.30 1012.26 1012.22
1018.30 1018.30 1018.38 1018.38 1018.42 1018.42 1018.42 1018.46 1018.46 1018.42 1018.38 1018.30 1018.22 1018.18 1018.14 1018.06 1018.02 1017.90 1017.82 1017.74 1017.70 1017.62 1017.58 1017.46 1017.38 1017.30 1017.18 1017.10 1017.02 1016.90 1016.74 1016.66 1016.50 1016.34 1016.18 1016.02 1015.90 1015.74 1015.58 1015.46 1015.34 1015.22 1015.10 1015.02 1014.94 1014.86 1014.74 1014.62 1014.46 1014.30 1014.14 1013.98 1013.82 1013.62 1013.50 1013.42 1013.30 1013.10 1012.90 1012.74 1012.58 1012.38 1012.26 1012.18 1012.10 1012.02 1011.98 1011.94 1011.90
1018.26 1018.26 1018.30 1018.30 1018.30 1018.30 1018.34 1018.38 1018.34 1018.30 1018.22 1018.14 1018.02 1017.94 1017.86 1017.86 1017.82 1017.74 1017.70 1017.62 1017.58 1017.46 1017.34 1017.30 1017.22 1017.14 1017.02 1016.90 1016.82 1016.70 1016.58 1016.46 1016.30 1016.14 1015.98 1015.82 1015.66 1015.54 1015.42 1015.30 1015.18 1015.02 1014.90 1014.78 1014.70 1014.62 1014.46 1014.30 1014.10 1013.90 1013.74 1013.66 1013.54 1013.42 1013.26 1013.18 1013.06 1012.90 1012.70 1012.54 1012.38 1012.22 1012.02 1011.90 1011.82 1011.74 1011.70 1011.62 1011.58
1018.18 1018.18 1018.22 1018.26 1018.26 1018.30 1018.30 1018.26 1018.18 1018.10 1017.98 1017.86 1017.82 1017.74 1017.70 1017.62 1017.58 1017.58 1017.54 1017.50 1017.42 1017.30 1017.18 1017.18 1017.10 1017.02 1016.86 1016.74 1016.58 1016.46 1016.34 1016.18 1016.10 1015.94 1015.78 1015.58 1015.46 1015.30 1015.18 1015.06 1014.94 1014.82 1014.70 1014.58 1014.54 1014.42 1014.26 1014.02 1013.86 1013.62 1013.46 1013.30 1013.22 1013.14 1012.98 1012.82 1012.74 1012.58 1012.46 1012.30 1012.18 1012.02 1011.86 1011.70 1011.58 1011.50 1011.42 1011.34 1011.30
1018.14 1018.18 1018.18 1018.18 1018.18 1018.18 1018.18 1018.06 1017.98 1017.86 1017.74 1017.66 1017.58 1017.58 1017.50 1017.46 1017.46 1017.46 1017.42 1017.30 1017.18 1017.14 1017.02 1016.98 1016.94 1016.86 1016.70 1016.50 1016.42 1016.30 1016.18 1016.02 1015.90 1015.74 1015.58 1015.42 1015.26 1015.14 1015.02 1014.86 1014.74 1014.62 1014.50 1014.42 1014.34 1014.22 1014.02 1013.82 1013.62 1013.46 1013.22 1013.06 1012.90 1012.78 1012.62 1012.50 1012.42 1012.30 1012.14 1012.02 1011.86 1011.74 1011.54 1011.38 1011.30 1011.26 1011.18 1011.10 1011.02
1018.06 1018.06 1018.06 1018.06 1018.06 1018.02 1017.94 1017.82 1017.74 1017.58 1017.50 1017.46 1017.46 1017.42 1017.42 1017.34 1017.30 1017.30 1017.26 1017.18 1017.06 1016.98 1016.90 1016.78 1016.74 1016.62 1016.50 1016.38 1016.26 1016.14 1016.02 1015.90 1015.74 1015.58 1015.38 1015.18 1015.06 1014.94 1014.78 1014.62 1014.50 1014.42 1014.30 1014.18 1014.06 1013.98 1013.82 1013.58 1013.46 1013.26 1013.06 1012.82 1012.62 1012.46 1012.34 1012.22 1012.10 1011.94 1011.78 1011.58 1011.46 1011.34 1011.22 1011.10 1011.02 1011.02 1010.94 1010.90 1010.78
1017.98 1017.94 1017.90 1017.86 1017.86 1017.78 1017.70 1017.58 1017.50 1017.38 1017.30 1017.34 1017.30 1017.30 1017.30 1017.26 1017.18 1017.18 1017.14 1017.02 1016.98 1016.90 1016.74 1016.62 1016.50 1016.42 1016.30 1016.26 1016.14 1015.98 1015.86 1015.74 1015.54 1015.30 1015.14 1014.94 1014.82 1014.70 1014.58 1014.42 1014.30 1014.18 1014.06 1013.94 1013.82 1013.74 1013.58 1013.42 1013.26 1013.06 1012.90 1012.70 1012.46 1012.30 1012.14 1012.02 1011.86 1011.66 1011.46 1011.30 1011.14 1010.98 1010.86 1010.74 1010.74 1010.74 1010.66 1010.58 1010.50
1017.78 1017.74 1017.70 1017.66 1017.58 1017.54 1017.46 1017.42 1017.30 1017.30 1017.22 1017.22 1017.22 1017.22 1017.18 1017.10 1017.06 1017.02 1017.02 1016.90 1016.82 1016.70 1016.58 1016.50 1016.34 1016.22 1016.10 1016.02 1015.94 1015.78 1015.62 1015.46 1015.30 1015.10 1014.90 1014.74 1014.58 1014.42 1014.30 1014.18 1014.02 1013.90 1013.78 1013.70 1013.58 1013.46 1013.34 1013.18 1013.06 1012.94 1012.74 1012.58 1012.30 1012.10 1011.94 1011.78 1011.58 1011.46 1011.26 1011.06 1010.90 1010.70 1010.54 1010.46 1010.38 1010.30 1010.26 1010.18 1010.18
1017.54 1017.50 1017.46 1017.42 1017.38 1017.30 1017.30 1017.30 1017.22 1017.18 1017.14 1017.14 1017.10 1017.10 1017.02 1016.98 1016.90 1016.86 1016.82 1016.74 1016.62 1016.50 1016.42 1016.30 1016.18 1016.02 1015.86 1015.74 1015.62 1015.54 1015.38 1015.18 1015.02 1014.86 1014.66 1014.46 1014.30 1014.18 1014.02 1013.90 1013.78 1013.70 1013.58 1013.46 1013.30 1013.18 1013.06 1012.94 1012.86 1012.74 1012.58 1012.38 1012.18 1011.98 1011.78 1011.58 1011.42 1011.22 1011.02 1010.82 1010.62 1010.46 1010.26 1010.14 1010.02 1009.94 1009.86 1009.82 1009.78
1017.26 1017.22 1017.22 1017.22 1017.18 1017.18 1017.18 1017.18 1017.14 1017.06 1017.02 1017.02 1016.98 1016.94 1016.90 1016.86 1016.74 1016.66 1016.58 1016.58 1016.50 1016.38 1016.18 1016.02 1015.98 1015.86 1015.70 1015.50 1015.34 1015.26 1015.18 1014.98 1014.74 1014.58 1014.46 1014.26 1014.10 1013.98 1013.82 1013.66 1013.54 1013.46 1013.34 1013.22 1013.06 1012.90 1012.78 1012.66 1012.58 1012.50 1012.38 1012.18 1012.02 1011.82 1011.62 1011.46 1011.26 1011.02 1010.82 1010.58 1010.42 1010.22 1010.02 1009.86 1009.74 1009.62 1009.54 1009.46 1009.38
1017.02 1017.02 1017.06 1017.02 1017.02 1017.02 1017.02 1017.02 1016.98 1016.90 1016.90 1016.86 1016.82 1016.74 1016.70 1016.70 1016.58 1016.54 1016.42 1016.30 1016.26 1016.18 1016.02 1015.86 1015.70 1015.58 1015.46 1015.30 1015.10 1014.98 1014.90 1014.74 1014.54 1014.34 1014.18 1014.02 1013.90 1013.74 1013.58 1013.42 1013.30 1013.18 1013.06 1012.94 1012.82 1012.66 1012.54 1012.46 1012.30 1012.26 1012.14 1011.98 1011.78 1011.62 1011.46 1011.30 1011.10 1010.90 1010.66 1010.46 1010.22 1010.02 1009.82 1009.62 1009.46 1009.34 1009.22 1009.14 1009.02
1016.90 1016.90 1016.90 1016.90 1016.90 1016.90 1016.90 1016.86 1016.82 1016.74 1016.74 1016.70 1016.62 1016.58 1016.50 1016.46 1016.38 1016.30 1016.18 1016.02 1015.98 1015.90 1015.78 1015.62 1015.46 1015.30 1015.14 1014.98 1014.82 1014.70 1014.58 1014.46 1014.26 1014.06 1013.90 1013.78 1013.62 1013.46 1013.30 1013.18 1013.02 1012.90 1012.78 1012.66 1012.58 1012.42 1012.30 1012.18 1012.10 1011.98 1011.86 1011.74 1011.54 1011.38 1011.22 1011.06 1010.90 1010.70 1010.46 1010.30 1010.02 1009.82 1009.58 1009.42 1009.26 1009.10 1008.94 1008.82 1008.74
1016.74 1016.74 1016.74 1016.74 1016.74 1016.74 1016.74 1016.66 1016.62 1016.58 1016.54 1016.50 1016.46 1016.38 1016.30 1016.22 1016.14 1016.06 1015.94 1015.82 1015.74 1015.62 1015.50 1015.34 1015.18 1015.02 1014.90 1014.70 1014.54 1014.38 1014.22 1014.14 1014.02 1013.82 1013.62 1013.50 1013.34 1013.18 1013.06 1012.94 1012.78 1012.62 1012.46 1012.38 1012.26 1012.14 1012.02 1011.90 1011.82 1011.70 1011.58 1011.42 1011.26 1011.10 1010.94 1010.78 1010.58 1010.46 1010.26 1010.02 1009.82 1009.58 1009.42 1009.26 1009.06 1008.90 1008.70 1008.54 1008.42
1016.58 1016.58 1016.58 1016.58 1016.58 1016.58 1016.54 1016.50 1016.46 1016.42 1016.34 1016.30 1016.22 1016.14 1016.06 1015.98 1015.86 1015.78 1015.70 1015.58 1015.50 1015.38 1015.22 1015.06 1014.98 1014.82 1014.62 1014.46 1014.30 1014.14 1013.94 1013.82 1013.70 1013.58 1013.42 1013.26 1013.06 1012.94 1012.82 1012.70 1012.54 1012.34 1012.18 1012.06 1011.94 1011.82 1011.74 1011.62 1011.50 1011.38 1011.30 1011.14 1010.94 1010.78 1010.62 1010.50 1010.30 1010.14 1009.90 1009.74 1009.54 1009.38 1009.22 1009.06 1008.90 1008.70 1008.46 1008.30 1008.14
1016.38 1016.42 1016.42 1016.46 1016.42 1016.38 1016.34 1016.30 1016.26 1016.18 1016.14 1016.02 1015.94 1015.86 1015.78 1015.74 1015.58 1015.50 1015.42 1015.30 1015.22 1015.14 1015.02 1014.90 1014.74 1014.58 1014.42 1014.30 1014.10 1013.94 1013.74 1013.54 1013.38 1013.26 1013.14 1013.02 1012.82 1012.70 1012.58 1012.46 1012.26 1012.06 1011.90 1011.74 1011.62 1011.54 1011.46 1011.30 1011.18 1011.10 1010.98 1010.86 1010.62 1010.46 1010.30 1010.18 1010.02 1009.78 1009.58 1009.34 1009.18 1009.02 1008.90 1008.74 1008.58 1008.46 1008.26 1008.10 1007.90
1016.26 1016.30 1016.30 1016.22 1016.22 1016.18 1016.10 1016.06 1016.02 1015.94 1015.86 1015.74 1015.66 1015.58 1015.54 1015.46 1015.38 1015.26 1015.18 1015.02 1014.98 1014.90 1014.78 1014.66 1014.50 1014.34 1014.18 1014.02 1013.90 1013.74 1013.54 1013.30 1013.06 1012.86 1012.74 1012.62 1012.50 1012.42 1012.30 1012.14 1011.94 1011.74 1011.58 1011.46 1011.34 1011.30 1011.26 1011.14 1010.94 1010.82 1010.70 1010.54 1010.38 1010.18 1010.02 1009.86 1009.70 1009.50 1009.26 1009.02 1008.82 1008.62 1008.46 1008.34 1008.22 1008.14 1008.02 1007.86 1007.74
1016.14 1016.18 1016.18 1016.10 1016.02 1015.98 1015.86 1015.82 1015.74 1015.66 1015.58 1015.50 1015.46 1015.38 1015.30 1015.18 1015.14 1015.02 1014.90 1014.78 1014.70 1014.58 1014.50 1014.42 1014.26 1014.14 1013.94 1013.78 1013.58 1013.42 1013.22 1013.02 1012.74 1012.54 1012.34 1012.22 1012.18 1012.10 1012.02 1011.86 1011.70 1011.50 1011.34 1011.22 1011.14 1011.06 1011.02 1010.94 1010.82 1010.62 1010.46 1010.30 1010.14 1009.94 1009.74 1009.58 1009.42 1009.26 1009.06 1008.82 1008.58 1008.38 1008.18 1007.98 1007.86 1007.74 1007.62 1007.54 1007.46
1016.02 1016.02 1015.98 1015.90 1015.86 1015.74 1015.66 1015.58 1015.50 1015.46 1015.38 1015.30 1015.26 1015.18 1015.06 1015.02 1014.90 1014.82 1014.70 1014.54 1014.42 1014.30 1014.22 1014.14 1014.02 1013.86 1013.70 1013.50 1013.22 1013.02 1012.86 1012.70 1012.46 1012.30 1012.10 1011.94 1011.86 1011.78 1011.74 1011.58 1011.46 1011.26 1011.14 1011.02 1010.90 1010.86 1010.74 1010.66 1010.58 1010.46 1010.30 1010.06 1009.86 1009.66 1009.46 1009.26 1009.10 1008.98 1008.86 1008.62 1008.42 1008.18 1007.94 1007.70 1007.46 1007.34 1007.26 1007.18 1007.10
1015.86 1015.82 1015.74 1015.74 1015.66 1015.58 1015.46 1015.38 1015.30 1015.26 1015.18 1015.14 1015.06 1015.02 1014.90 1014.82 1014.74 1014.58 1014.46 1014.34 1014.22 1014.10 1014.02 1013.86 1013.74 1013.58 1013.38 1013.14 1012.90 1012.70 1012.50 1012.34 1012.18 1012.02 1011.90 1011.78 1011.62 1011.54 1011.46 1011.30 1011.18 1011.02 1010.90 1010.74 1010.62 1010.54 1010.46 1010.30 1010.18 1010.14 1010.02 1009.82 1009.58 1009.38 1009.14 1008.90 1008.74 1008.58 1008.46 1008.30 1008.10 1007.90 1007.74 1007.46 1007.26 1007.10 1007.02 1006.90 1006.74
1015.74 1015.66 1015.58 1015.50 1015.46 1015.30 1015.22 1015.18 1015.18 1015.10 1015.06 1014.98 1014.90 1014.86 1014.74 1014.66 1014.58 1014.46 1014.30 1014.14 1014.02 1013.86 1013.74 1013.58 1013.42 1013.22 1013.02 1012.82 1012.58 1012.38 1012.26 1012.10 1011.94 1011.82 1011.66 1011.54 1011.42 1011.30 1011.18 1011.02 1010.90 1010.74 1010.58 1010.46 1010.30 1010.18 1010.02 1009.90 1009.78 1009.66 1009.58 1009.50 1009.30 1009.10 1008.90 1008.66 1008.46 1008.26 1008.06 1007.90 1007.74 1007.54 1007.34 1007.18 1007.02 1006.90 1006.74 1006.62 1006.54
1015.58 1015.50 1015.42 1015.30 1015.22 1015.14 1015.06 1015.06 1015.02 1014.98 1014.90 1014.86 1014.82 1014.74 1014.58 1014.50 1014.42 1014.26 1014.06 1013.90 1013.78 1013.62 1013.46 1013.22 1013.06 1012.90 1012.74 1012.54 1012.30 1012.14 1011.98 1011.82 1011.70 1011.54 1011.38 1011.26 1011.18 1011.02 1010.90 1010.74 1010.54 1010.34 1010.18 1010.02 1009.90 1009.74 1009.62 1009.46 1009.34 1009.26 1009.18 1009.10 1009.02 1008.82 1008.58 1008.30 1008.10 1007.86 1007.66 1007.46 1007.26 1007.10 1006.98 1006.82 1006.70 1006.58 1006.46 1006.38 1006.30
1015.42 1015.34 1015.26 1015.18 1015.14 1015.02 1014.98 1014.94 1014.90 1014.90 1014.82 1014.74 1014.66 1014.58 1014.46 1014.30 1014.18 1014.02 1013.86 1013.70 1013.54 1013.38 1013.22 1013.02 1012.90 1012.74 1012.54 1012.30 1012.14 1011.90 1011.74 1011.50 1011.34 1011.26 1011.18 1011.02 1010.86 1010.70 1010.54 1010.42 1010.18 1009.98 1009.74 1009.62 1009.50 1009.34 1009.18 1009.06 1008.94 1008.86 1008.74 1008.70 1008.62 1008.46 1008.26 1008.02 1007.74 1007.54 1007.30 1007.06 1006.86 1006.70 1006.58 1006.46 1006.30 1006.18 1006.10 1006.02 1005.98
1015.26 1015.18 1015.14 1015.10 1015.02 1014.94 1014.90 1014.86 1014.82 1014.78 1014.74 1014.62 1014.50 1014.42 1014.30 1014.18 1013.98 1013.82 1013.66 1013.46 1013.30 1013.10 1012.94 1012.82 1012.62 1012.46 1012.26 1012.06 1011.90 1011.66 1011.42 1011.22 1011.06 1010.98 1010.90 1010.82 1010.62 1010.38 1010.18 1010.02 1009.82 1009.58 1009.38 1009.22 1009.10 1008.94 1008.82 1008.62 1008.50 1008.38 1008.30 1008.22 1008.18 1008.10 1007.90 1007.62 1007.38 1007.14 1006.90 1006.66 1006.46 1006.30 1006.18 1006.02 1005.90 1005.82 1005.74 1005.66 1005.58
1015.14 1015.10 1015.06 1015.02 1014.90 1014.90 1014.82 1014.78 1014.70 1014.66 1014.58 1014.50 1014.38 1014.26 1014.10 1013.94 1013.74 1013.58 1013.46 1013.26 1013.10 1012.90 1012.70 1012.50 1012.30 1012.14 1011.94 1011.74 1011.54 1011.34 1011.18 1010.98 1010.86 1010.74 1010.66 1010.54 1010.34 1010.10 1009.86 1009.62 1009.38 1009.18 1008.98 1008.82 1008.66 1008.54 1008.38 1008.22 1008.06 1007.94 1007.86 1007.78 1007.74 1007.62 1007.46 1007.26 1007.02 1006.74 1006.50 1006.30 1006.06 1005.90 1005.82 1005.70 1005.54 1005.42 1005.30 1005.26 1005.22
1015.02 1015.02 1014.98 1014.90 1014.86 1014.74 1014.70 1014.66 1014.58 1014.54 1014.46 1014.34 1014.26 1014.10 1013.94 1013.74 1013.58 1013.38 1013.18 1013.06 1012.90 1012.74 1012.50 1012.30 1012.10 1011.90 1011.70 1011.46 1011.30 1011.10 1010.90 1010.74 1010.66 1010.54 1010.38 1010.26 1010.02 1009.78 1009.54 1009.30 1009.02 1008.78 1008.58 1008.42 1008.26 1008.10 1007.90 1007.74 1007.62 1007.50 1007.38 1007.30 1007.30 1007.18 1006.98 1006.78 1006.54 1006.30 1006.06 1005.82 1005.62 1005.46 1005.38 1005.30 1005.14 1005.02 1004.90 1004.86 1004.82
1015.02 1014.98 1014.90 1014.86 1014.78 1014.70 1014.62 1014.58 1014.50 1014.42 1014.30 1014.18 1014.02 1013.90 1013.74 1013.58 1013.38 1013.18 1012.98 1012.86 1012.70 1012.50 1012.30 1012.10 1011.98 1011.74 1011.54 1011.30 1011.18 1010.94 1010.74 1010.58 1010.46 1010.30 1010.14 1009.90 1009.74 1009.46 1009.22 1008.94 1008.70 1008.46 1008.22 1008.02 1007.86 1007.66 1007.50 1007.30 1007.18 1007.02 1006.90 1006.82 1006.78 1006.62 1006.46 1006.22 1006.02 1005.78 1005.54 1005.30 1005.14 1005.02 1004.90 1004.78 1004.66 1004.54 1004.46 1004.42 1004.38
1014.94 1014.90 1014.86 1014.78 1014.74 1014.66 1014.54 1014.46 1014.34 1014.26 1014.14 1013.98 1013.82 1013.70 1013.54 1013.38 1013.22 1013.02 1012.78 1012.62 1012.46 1012.30 1012.10 1011.90 1011.74 1011.58 1011.34 1011.14 1010.94 1010.74 1010.58 1010.38 1010.18 1010.02 1009.86 1009.66 1009.46 1009.18 1008.90 1008.58 1008.30 1008.02 1007.82 1007.62 1007.42 1007.22 1007.02 1006.90 1006.70 1006.50 1006.42 1006.38 1006.30 1006.14 1005.90 1005.66 1005.46 1005.26 1005.02 1004.82 1004.62 1004.46 1004.38 1004.26 1004.18 1004.02 1003.98 1003.90 1003.86
1014.90 1014.90 1014.90 1014.78 1014.70 1014.58 1014.46 1014.30 1014.18 1014.06 1013.90 1013.82 1013.66 1013.50 1013.30 1013.14 1012.94 1012.78 1012.62 1012.46 1012.26 1012.06 1011.86 1011.66 1011.50 1011.30 1011.14 1010.90 1010.70 1010.54 1010.38 1010.18 1009.94 1009.74 1009.54 1009.34 1009.18 1008.90 1008.58 1008.18 1007.86 1007.58 1007.38 1007.18 1007.02 1006.78 1006.58 1006.42 1006.22 1006.06 1005.94 1005.86 1005.74 1005.58 1005.34 1005.14 1004.90 1004.70 1004.46 1004.30 1004.10 1003.90 1003.78 1003.70 1003.58 1003.50 1003.46 1003.34 1003.34
1014.90 1014.90 1014.90 1014.82 1014.62 1014.46 1014.30 1014.18 1014.02 1013.90 1013.74 1013.62 1013.46 1013.30 1013.14 1012.94 1012.74 1012.58 1012.46 1012.30 1012.10 1011.86 1011.62 1011.46 1011.30 1011.14 1010.90 1010.70 1010.46 1010.30 1010.14 1009.98 1009.74 1009.50 1009.26 1009.02 1008.86 1008.58 1008.30 1007.86 1007.54 1007.22 1006.98 1006.74 1006.58 1006.34 1006.18 1005.94 1005.74 1005.58 1005.50 1005.42 1005.22 1005.02 1004.78 1004.58 1004.34 1004.14 1003.90 1003.70 1003.50 1003.30 1003.18 1003.14 1003.02 1002.94 1002.86 1002.78 1002.74
1014.90 1014.90 1014.86 1014.74 1014.54 1014.34 1014.18 1014.06 1013.94 1013.82 1013.62 1013.46 1013.30 1013.14 1012.98 1012.78 1012.58 1012.38 1012.26 1012.18 1012.02 1011.74 1011.46 1011.30 1011.14 1010.90 1010.74 1010.54 1010.30 1010.02 1009.86 1009.70 1009.50 1009.26 1008.98 1008.74 1008.54 1008.30 1008.02 1007.62 1007.26 1006.90 1006.58 1006.38 1006.18 1005.94 1005.74 1005.54 1005.30 1005.18 1005.02 1004.90 1004.74 1004.54 1004.30 1004.10 1003.86 1003.58 1003.38 1003.14 1002.90 1002.74 1002.58 1002.54 1002.42 1002.30 1002.18 1002.10 1002.06
1014.86 1014.82 1014.74 1014.58 1014.46 1014.30 1014.14 1014.02 1013.86 1013.74 1013.58 1013.38 1013.18 1012.98 1012.78 1012.62 1012.46 1012.30 1012.18 1012.06 1011.90 1011.70 1011.42 1011.18 1010.98 1010.74 1010.54 1010.34 1010.10 1009.86 1009.58 1009.34 1009.18 1008.94 1008.74 1008.46 1008.22 1008.02 1007.74 1007.42 1007.02 1006.58 1006.30 1006.02 1005.78 1005.58 1005.34 1005.14 1004.90 1004.70 1004.58 1004.46 1004.30 1004.10 1003.86 1003.62 1003.34 1003.10 1002.90 1002.66 1002.42 1002.18 1002.02 1001.90 1001.82 1001.66 1001.54 1001.46 1001.38
1014.78 1014.74 1014.66 1014.54 1014.38 1014.22 1014.02 1013.86 1013.74 1013.58 1013.46 1013.30 1013.10 1012.86 1012.66 1012.54 1012.38 1012.22 1012.06 1011.94 1011.78 1011.58 1011.34 1011.14 1010.86 1010.58 1010.38 1010.18 1009.94 1009.62 1009.30 1009.02 1008.78 1008.58 1008.42 1008.18 1007.86 1007.66 1007.46 1007.18 1006.74 1006.38 1006.02 1005.74 1005.46 1005.22 1004.98 1004.74 1004.46 1004.26 1004.10 1003.98 1003.82 1003.62 1003.42 1003.18 1002.90 1002.62 1002.38 1002.18 1001.90 1001.66 1001.46 1001.26 1001.18 1001.06 1000.94 1000.78 1000.74
1014.74 1014.62 1014.54 1014.42 1014.30 1014.18 1013.98 1013.78 1013.58 1013.46 1013.38 1013.22 1013.02 1012.82 1012.62 1012.46 1012.30 1012.14 1011.98 1011.82 1011.62 1011.46 1011.26 1010.98 1010.70 1010.42 1010.18 1010.02 1009.74 1009.42 1009.06 1008.74 1008.42 1008.18 1008.02 1007.86 1007.58 1007.30 1007.06 1006.82 1006.46 1006.10 1005.74 1005.42 1005.14 1004.86 1004.58 1004.30 1004.06 1003.82 1003.66 1003.50 1003.34 1003.18 1002.94 1002.70 1002.42 1002.10 1001.82 1001.58 1001.34 1001.14 1000.90 1000.66 1000.54 1000.42 1000.30 1000.18 1000.10
Thickness
5449 5447 5444 5441 5439 5437 5435 5432 5430 5428 5427 5425 5423 5422 5421 5419 5417 5415 5414 5413 5411 5410 5409 5408 5407 5406 5404 5403 5401 5399 5397 5396 5395 5394 5393 5391 5390 5389 5388 5387 5386 5386 5385 5384 5383 5382 5382 5381 5380 5379 5380 5380 5382 5384 5386 5388 5389 5390 5391 5392 5393 5394 5394 5394 5394 5394 5395 5396 5398
5444 5441 5438 5435 5432 5430 5428 5426 5424 5422 5420 5419 5418 5416 5414 5413 5411 5410 5409 5407 5406 5405 5404 5403 5402 5401 5399 5397 5396 5394 5392 5391 5390 5388 5387 5386 5385 5383 5382 5381 5380 5378 5378 5377 5376 5376 5375 5374 5373 5372 5373 5373 5375 5377 5379 5380 5381 5382 5383 5384 5386 5387 5388 5389 5390 5390 5389 5390 5391
5437 5435 5432 5429 5427 5424 5422 5421 5419 5417 5415 5413 5412 5410 5408 5407 5406 5404 5403 5402 5401 5400 5399 5398 5397 5395 5394 5393 5391 5389 5388 5386 5385 5383 5382 5381 5380 5378 5376 5375 5373 5372 5371 5370 5369 5368 5367 5367 5366 5365 5366 5367 5368 5370 5372 5373 5374 5375 5376 5377 5378 5380 5382 5383 5384 5384 5385 5385 5386
5431 5429 5426 5423 5421 5419 5417 5415 5413 5412 5410 5408 5406 5405 5403 5401 5400 5399 5399 5398 5396 5395 5394 5393 5392 5390 5389 5387 5386 5384 5382 5381 5379 5378 5377 5376 5374 5373 5371 5369 5367 5366 5364 5363 5362 5361 5360 5359 5358 5358 5359 5360 5362 5363 5365 5367 5368 5368 5369 5370 5371 5373 5375 5377 5377 5378 5380 5381 5381
5425 5423 5420 5417 5415 5413 5411 5410 5408 5406 5405 5403 5401 5400 5399 5397 5395 5395 5394 5393 5392 5391 5390 5388 5387 5385 5383 5382 5381 5379 5378 5376 5374 5372 5371 5370 5368 5367 5365 5364 5362 5361 5359 5357 5355 5353 5352 5351 5350 5350 5352 5353 5355 5356 5358 5360 5361 5361 5363 5363 5365 5366 5368 5369 5371 5373 5373 5375 5376
5421 5417 5414 5412 5410 5407 5406 5404 5403 5401 5399 5398 5397 5395 5394 5393 5392 5391 5390 5389 5389 5387 5385 5383 5381 5379 5378 5377 5376 5374 5372 5371 5369 5367 5365 5364 5362 5361 5360 5358 5356 5354 5352 5351 5350 5348 5345 5344 5343 5343 5344 5345 5347 5348 5350 5352 5353 5354 5356 5357 5359 5360 5361 5363 5365 5366 5368 5370 5371
5415 5412 5410 5407 5405 5403 5401 5400 5398 5397 5395 5394 5392 5391 5390 5389 5388 5387 5386 5385 5383 5382 5380 5378 5376 5374 5373 5371 5370 5369 5367 5365 5363 5361 5359 5358 5357 5355 5354 5352 5350 5349 5347 5345 5344 5342 5340 5338 5337 5336 5337 5337 5338 5340 5342 5343 5345 5347 5349 5350 5352 5354 5355 5356 5358 5359 5361 5364 5365
5410 5407 5405 5403 5401 5399 5397 5396 5394 5393 5391 5390 5389 5387 5386 5385 5383 5383 5382 5380 5378 5377 5375 5373 5371 5369 5367 5366 5364 5362 5360 5359 5357 5356 5354 5353 5352 5350 5347 5346 5345 5343 5341 5339 5337 5336 5334 5332 5331 5330 5330 5330 5330 5332 5333 5334 5336 5338 5341 5343 5346 5347 5348 5350 5351 5353 5355 5357 5359
5405 5403 5401 5399 5397 5395 5394 5392 5390 5389 5387 5386 5385 5383 5382 5381 5379 5377 5376 5375 5373 5371 5369 5368 5365 5364 5361 5359 5358 5356 5354 5353 5351 5350 5348 5346 5345 5343 5341 5339 5338 5337 5335 5333 5331 5329 5327 5326 5325 5325 5324 5324 5324 5324 5324 5325 5326 5329 5331 5334 5337 5339 5342 5343 5344 5346 5348 5350 5352
5402 5399 5397 5395 5393 5392 5390 5388 5386 5385 5383 5382 5381 5379 5378 5376 5375 5373 5372 5370 5368 5366 5364 5362 5360 5358 5355 5353 5352 5350 5348 5346 5344 5343 5341 5339 5338 5336 5335 5333 5331 5330 5329 5326 5324 5323 5321 5320 5319 5319 5318 5318 5317 5317 5316 5317 5317 5319 5322 5324 5328 5331 5334 5336 5338 5340 5342 5343 5345
5398 5395 5393 5392 5390 5388 5386 5384 5383 5381 5380 5379 5378 5376 5374 5372 5370 5368 5366 5364 5362 5361 5359 5356 5354 5352 5350 5347 5346 5344 5341 5339 5337 5336 5335 5333 5331 5330 5327 5326 5324 5322 5321 5319 5317 5314 5313 5313 5313 5313 5312 5312 5311 5310 5310 5310 5310 5311 5312 5315 5319 5322 5326 5328 5331 5333 5334 5336 5338
5394 5392 5390 5388 5386 5384 5382 5380 5379 5378 5377 5375 5374 5373 5370 5369 5366 5364 5361 5359 5357 5356 5354 5351 5348 5346 5344 5342 5339 5338 5336 5333 5331 5329 5327 5326 5324 5323 5320 5318 5316 5314 5313 5311 5309 5307 5306 5305 5305 5306 5307 5306 5305 5305 5305 5305 5305 5305 5306 5308 5310 5314 5317 5321 5324 5326 5327 5329 5330
5390 5388 5386 5384 5382 5379 5378 5376 5376 5375 5374 5373 5370 5368 5366 5364 5361 5358 5356 5354 5352 5351 5348 5345 5343 5340 5338 5336 5333 5331 5329 5326 5324 5322 5320 5318 5317 5315 5313 5310 5309 5306 5305 5303 5301 5300 5298 5299 5299 5299 5299 5300 5300 5300 5301 5301 5301 5301 5301 5302 5304 5307 5310 5314 5317 5319 5321 5321 5323
5386 5384 5382 5380 5378 5376 5375 5373 5373 5372 5370 5368 5366 5363 5361 5359 5356 5354 5351 5349 5347 5345 5343 5340 5337 5335 5332 5330 5327 5324 5321 5319 5317 5315 5314 5312 5310 5308 5305 5303 5302 5300 5298 5296 5295 5294 5293 5293 5293 5293 5294 5295 5296 5296 5297 5297 5297 5298 5299 5300 5301 5303 5305 5308 5310 5312 5313 5315 5317
5382 5380 5378 5376 5375 5373 5372 5371 5370 5368 5367 5364 5361 5359 5357 5353 5352 5349 5346 5343 5341 5339 5337 5335 5332 5329 5326 5323 5320 5318 5315 5313 5311 5309 5307 5305 5303 5301 5299 5297 5295 5294 5292 5290 5290 5289 5288 5288 5288 5289 5289 5290 5291 5291 5292 5292 5293 5294 5295 5297 5298 5299 5301 5303 5305 5307 5308 5310 5311
5379 5377 5376 5374 5372 5370 5369 5368 5366 5364 5362 5360 5357 5354 5352 5349 5347 5344 5341 5338 5336 5333 5331 5329 5326 5324 5321 5318 5315 5312 5310 5307 5305 5303 5301 5299 5297 5295 5293 5291 5290 5289 5288 5287 5285 5285 5284 5284 5284 5284 5284 5285 5285 5287 5288 5288 5289 5290 5291 5293 5294 5296 5297 5299 5301 5302 5304 5305 5307
5376 5374 5373 5371 5370 5368 5366 5364 5362 5360 5357 5355 5352 5350 5347 5344 5342 5339 5336 5333 5331 5328 5326 5323 5321 5318 5316 5313 5310 5306 5304 5302 5300 5297 5296 5293 5292 5290 5289 5287 5285 5284 5284 5283 5282 5282 5282 5281 5280 5280 5280 5281 5281 5283 5283 5284 5285 5286 5287 5289 5290 5292 5294 5295 5297 5298 5299 5300 5303
5374 5372 5370 5368 5366 5365 5363 5360 5358 5356 5353 5351 5347 5345 5342 5340 5337 5334 5331 5328 5325 5323 5321 5318 5315 5313 5310 5308 5305 5302 5298 5297 5294 5292 5290 5288 5286 5285 5284 5283 5282 5281 5281 5280 5280 5280 5279 5279 5278 5277 5277 5277 5278 5278 5279 5280 5281 5282 5283 5285 5286 5288 5290 5291 5293 5294 5295 5297 5299
5371 5369 5367 5365 5363 5361 5359 5357 5354 5351 5349 5346 5344 5341 5338 5335 5332 5329 5327 5324 5321 5318 5315 5313 5311 5308 5306 5303 5300 5297 5293 5291 5289 5287 5285 5284 5282 5281 5280 5280 5279 5279 5278 5277 5278 5277 5277 5276 5275 5274 5274 5274 5274 5275 5276 5276 5277 5278 5279 5281 5282 5284 5285 5287 5288 5290 5291 5292 5294
5368 5366 5364 5362 5360 5358 5355 5353 5350 5347 5345 5342 5340 5336 5334 5331 5327 5325 5322 5320 5316 5313 5310 5308 5306 5303 5301 5298 5295 5292 5289 5286 5284 5283 5281 5280 5278 5278 5277 5277 5277 5276 5276 5276 5275 5275 5274 5274 5273 5273 5272 5272 5272 5272 5273 5273 5273 5275 5275 5276 5278 5279 5281 5282 5284 5286 5287 5289 5290
5365 5363 5360 5358 5356 5354 5351 5349 5346 5343 5341 5338 5335 5333 5330 5327 5324 5321 5318 5315 5312 5309 5305 5303 5300 5298 5295 5293 5290 5288 5285 5283 5281 5279 5277 5277 5276 5275 5275 5275 5274 5275 5274 5274 5274 5273 5273 5273 5272 5271 5271 5270 5271 5270 5271 5271 5271 5272 5272 5273 5275 5276 5277 5278 5279 5281 5283 5285 5287
5362 5359 5357 5355 5352 5349 5347 5344 5342 5339 5336 5333 5331 5328 5325 5323 5320 5317 5314 5310 5307 5304 5301 5298 5295 5293 5290 5288 5285 5283 5282 5280 5278 5276 5274 5274 5274 5273 5273 5272 5273 5273 5273 5273 5273 5272 5272 5271 5271 5270 5270 5270 5269 5270 5269 5269 5270 5270 5271 5271 5272 5273 5273 5274 5275 5276 5279 5280 5282
5358 5356 5354 5351 5348 5345 5343 5340 5337 5335 5332 5330 5327 5324 5322 5319 5316 5313 5310 5307 5303 5299 5296 5293 5290 5288 5285 5283 5281 5279 5277 5276 5275 5274 5273 5273 5272 5271 5271 5271 5271 5272 5272 5272 5271 5271 5270 5270 5269 5269 5269 5269 5269 5269 5269 5268 5269 5269 5270 5271 5271 5272 5272 5272 5273 5273 5274 5276 5278
5355 5352 5349 5347 5345 5342 5339 5336 5334 5332 5329 5327 5324 5321 5318 5315 5312 5309 5306 5303 5299 5295 5291 5288 5285 5283 5280 5278 5276 5275 5274 5274 5273 5274 5273 5271 5271 5270 5270 5270 5270 5271 5271 5271 5270 5269 5269 5268 5268 5268 5268 5267 5268 5267 5268 5268 5268 5268 5269 5270 5271 5271 5271 5271 5271 5272 5272 5272 5273
5351 5348 5346 5343 5341 5338 5336 5333 5331 5328 5325 5322 5320 5316 5314 5310 5307 5304 5301 5298 5295 5290 5287 5284 5281 5279 5276 5275 5273 5272 5272 5271 5272 5272 5272 5271 5270 5270 5269 5269 5269 5269 5270 5269 5268 5268 5266 5266 5266 5266 5266 5266 5266 5266 5267 5267 5267 5267 5268 5269 5269 5270 5271 5271 5271 5271 5270 5270 5270
5347 5344 5342 5339 5337 5335 5332 5329 5327 5324 5321 5318 5315 5312 5309 5305 5302 5299 5296 5293 5290 5286 5283 5280 5277 5275 5274 5273 5272 5271 5270 5270 5270 5270 5270 5270 5270 5269 5268 5268 5268 5268 5268 5268 5267 5267 5265 5265 5264 5264 5264 5265 5265 5265 5266 5266 5266 5266 5266 5267 5267 5269 5269 5270 5271 5271 5270 5269 5269
5343 5341 5338 5336 5334 5331 5328 5326 5323 5320 5317 5314 5311 5307 5304 5300 5297 5294 5291 5288 5285 5282 5279 5276 5274 5272 5271 5271 5271 5270 5270 5269 5268 5268 5268 5268 5268 5267 5268 5267 5267 5266 5266 5266 5266 5266 5265 5265 5264 5264 5263 5263 5264 5264 5265 5265 5266 5266 5266 5266 5267 5268 5268 5268 5269 5270 5269 5269 5268
5339 5337 5334 5332 5330 5328 5325 5322 5319 5315 5313 5309 5305 5302 5299 5296 5293 5289 5286 5284 5280 5278 5276 5274 5272 5271 5270 5269 5269 5268 5268 5268 5267 5267 5267 5266 5266 5266 5267 5266 5266 5266 5266 5266 5266 5265 5266 5265 5265 5264 5263 5262 5263 5263 5264 5265 5265 5266 5266 5266 5267 5267 5268 5268 5268 5268 5268 5268 5267
5336 5332 5331 5329 5326 5323 5321 5317 5314 5311 5307 5304 5301 5297 5294 5291 5288 5285 5282 5279 5277 5274 5273 5272 5270 5269 5268 5267 5267 5267 5266 5266 5266 5266 5266 5266 5266 5266 5265 5266 5265 5266 5266 5266 5266 5266 5265 5266 5265 5264 5264 5263 5262 5262 5263 5264 5265 5265 5266 5267 5267 5268 5268 5268 5268 5267 5268 5267 5267
5331 5329 5327 5324 5321 5319 5316 5312 5309 5306 5302 5299 5296 5293 5290 5287 5283 5280 5278 5275 5273 5272 5270 5268 5267 5266 5266 5266 5265 5265 5265 5266 5265 5265 5264 5264 5265 5265 5265 5265 5265 5266 5266 5267 5266 5266 5266 5266 5265 5265 5264 5263 5262 5261 5262 5263 5264 5265 5266 5266 5267 5268 5267 5268 5268 5268 5267 5267 5266
5327 5325 5322 5320 5317 5314 5311 5308 5304 5301 5298 5295 5292 5289 5286 5283 5280 5276 5274 5272 5270 5269 5268 5266 5266 5265 5265 5263 5263 5264 5264 5265 5265 5264 5264 5263 5264 5264 5265 5265 5266 5266 5266 5266 5266 5266 5267 5266 5266 5265 5265 5264 5262 5261 5262 5263 5263 5264 5265 5266 5267 5267 5267 5267 5268 5268 5267 5267 5266
5323 5321 5318 5315 5312 5309 5306 5303 5300 5297 5294 5291 5287 5284 5281 5278 5276 5273 5270 5268 5267 5266 5266 5265 5264 5264 5264 5263 5263 5263 5263 5263 5263 5263 5262 5263 5263 5264 5265 5266 5266 5267 5267 5267 5267 5267 5267 5267 5267 5266 5265 5264 5263 5262 5262 5262 5263 5263 5265 5265 5267 5267 5267 5267 5267 5268 5267 5267 5266
5319 5316 5313 5310 5308 5305 5302 5298 5296 5293 5290 5286 5284 5280 5277 5274 5272 5270 5267 5266 5264 5263 5263 5263 5263 5262 5262 5262 5262 5262 5262 5263 5262 5262 5262 5262 5262 5264 5265 5265 5267 5267 5267 5267 5267 5268 5267 5268 5267 5267 5266 5265 5264 5263 5263 5263 5263 5264 5264 5266 5266 5266 5267 5267 5267 5267 5267 5267 5266
5315 5312 5309 5306 5303 5300 5297 5294 5291 5289 5285 5283 5280 5276 5273 5271 5268 5266 5265 5263 5262 5262 5261 5261 5261 5260 5261 5261 5260 5261 5261 5262 5261 5261 5262 5262 5262 5263 5265 5266 5266 5267 5267 5267 5267 5268 5268 5268 5267 5267 5266 5266 5264 5264 5264 5264 5264 5264 5265 5265 5266 5266 5266 5266 5267 5268 5267 5266 5266
5309 5307 5304 5302 5299 5296 5293 5290 5287 5284 5282 5279 5276 5273 5270 5267 5265 5263 5262 5261 5261 5260 5260 5259 5259 5259 5259 5259 5259 5259 5260 5260 5261 5261 5262 5262 5262 5263 5264 5266 5267 5267 5267 5267 5268 5268 5269 5268 5268 5268 5268 5266 5265 5265 5265 5265 5266 5266 5266 5266 5267 5267 5267 5267 5267 5268 5267 5267 5267
5305 5301 5298 5296 5294 5291 5289 5287 5284 5281 5278 5275 5272 5269 5267 5264 5263 5261 5260 5259 5259 5259 5259 5259 5258 5258 5258 5258 5259 5259 5259 5260 5260 5261 5261 5261 5262 5263 5264 5266 5267 5268 5268 5268 5268 5268 5268 5269 5269 5268 5268 5267 5266 5267 5267 5267 5267 5267 5267 5267 5267 5268 5268 5268 5269 5268 5268 5268 5268
5300 5297 5293 5291 5290 5287 5285 5283 5280 5277 5274 5271 5268 5266 5264 5262 5261 5259 5258 5257 5257 5258 5258 5258 5257 5257 5257 5257 5258 5258 5259 5259 5259 5260 5261 5262 5262 5263 5264 5266 5267 5268 5268 5268 5268 5269 5269 5269 5269 5269 5269 5268 5268 5268 5268 5268 5268 5268 5269 5269 5269 5270 5269 5269 5270 5270 5270 5270 5269
5295 5292 5289 5287 5285 5283 5281 5278 5276 5272 5269 5267 5265 5263 5261 5259 5258 5257 5256 5255 5254 5256 5256 5256 5256 5256 5256 5256 5257 5258 5259 5259 5259 5259 5261 5262 5262 5262 5263 5265 5267 5268 5268 5269 5269 5269 5270 5270 5270 5270 5270 5268 5268 5269 5269 5269 5269 5269 5269 5270 5270 5271 5271 5271 5271 5272 5272 5272 5272
5291 5288 5285 5283 5281 5278 5277 5274 5271 5268 5265 5263 5261 5260 5258 5257 5256 5255 5254 5253 5253 5253 5254 5254 5254 5254 5254 5255 5256 5258 5259 5259 5259 5259 5260 5261 5262 5262 5262 5264 5266 5267 5268 5269 5269 5269 5270 5270 5271 5271 5270 5269 5269 5269 5269 5269 5269 5270 5270 5270 5271 5272 5273 5273 5273 5273 5274 5275 5274
5287 5284 5281 5279 5276 5274 5272 5269 5267 5264 5261 5259 5258 5256 5255 5254 5254 5252 5252 5251 5251 5251 5251 5252 5253 5253 5253 5254 5255 5257 5259 5260 5260 5260 5260 5261 5262 5262 5263 5263 5265 5266 5268 5269 5269 5270 5270 5271 5271 5272 5271 5270 5270 5270 5269 5270 5270 5270 5271 5271 5272 5273 5274 5275 5275 5276 5277 5277 5277
5282 5280 5277 5274 5272 5270 5268 5265 5264 5260 5258 5256 5254 5253 5252 5251 5251 5251 5250 5250 5250 5249 5250 5250 5252 5252 5253 5253 5255 5256 5258 5260 5261 5261 5261 5261 5262 5262 5263 5263 5265 5266 5268 5269 5270 5270 5271 5271 5272 5272 5272 5271 5271 5270 5271 5270 5271 5271 5272 5273 5274 5275 5276 5277 5278 5278 5279 5280 5280